Location: Mentone
(34.5413°N, 85.5351°W)
Time: 17:21:19
(UTC-06:00)

A-11 Canister half - Visible Passes

Search period start: 20 February 2018 00:00
Search period end: 02 March 2018 00:00
Orbit: 1527 x 1682 km, 47.3° (Epoch: 20 February)

Date Brightness Start Highest point End Pass type
(mag) Time Alt. Az. Time Alt. Az. Time Alt. Az.
20 Feb 9.8 18:20:43 10° WNW 18:29:20 39° N 18:37:13 12° ENE visible
20 Feb 9.5 20:27:26 10° NW 20:35:31 45° N 20:35:31 45° N visible
20 Feb 11.0 22:32:37 10° NW 22:33:50 15° NW 22:33:50 15° NW visible
21 Feb 9.8 17:59:00 10° WNW 18:07:39 39° N 18:16:14 10° ENE visible
21 Feb 9.4 20:05:49 10° NW 20:14:38 44° NNE 20:15:09 44° NNE visible
21 Feb 10.7 22:11:02 10° NW 22:13:27 21° NW 22:13:27 21° NW visible
22 Feb 9.4 19:44:10 10° NW 19:52:58 43° NNE 19:54:48 40° NE visible
22 Feb 10.4 21:49:25 10° NW 21:53:07 28° NW 21:53:07 28° NW visible
23 Feb 9.5 19:22:32 10° NW 19:31:18 42° NNE 19:34:29 33° NE visible
23 Feb 10.0 21:27:50 10° NW 21:32:47 37° NW 21:32:47 37° NW visible
24 Feb 9.6 19:00:54 10° NW 19:09:38 42° NNE 19:14:10 27° ENE visible
24 Feb 9.5 21:06:14 10° NW 21:12:29 49° NW 21:12:29 49° NW visible
25 Feb 9.6 18:39:14 10° NW 18:47:57 41° NNE 18:53:54 20° ENE visible
25 Feb 9.1 20:44:38 10° NW 20:52:12 63° NW 20:52:12 63° NW visible
26 Feb 9.6 18:17:35 10° WNW 18:26:17 40° N 18:33:39 14° ENE visible
26 Feb 8.8 20:23:03 10° NW 20:31:58 77° N 20:31:58 77° N visible
26 Feb 11.0 22:28:50 10° WNW 22:30:17 15° WNW 22:30:17 15° WNW visible
27 Feb 9.7 17:55:55 10° WNW 18:04:36 40° N 18:13:12 10° ENE visible
27 Feb 8.8 20:01:26 10° NW 20:10:48 76° NNE 20:11:46 70° E visible
27 Feb 10.7 22:07:08 10° WNW 22:10:05 21° W 22:10:05 21° W visible
28 Feb 8.9 19:39:51 10° NW 19:49:11 73° NNE 19:51:37 54° E visible
28 Feb 10.3 21:45:27 10° WNW 21:49:56 27° W 21:49:56 27° W visible
01 Mar 8.9 19:18:15 10° NW 19:27:35 70° NNE 19:31:31 39° ESE visible
01 Mar 10.0 21:23:46 10° WNW 21:29:50 34° WSW 21:29:50 34° WSW visible
